GEFSSE_500_meanwind_192.txt.gz
Wind_Speed
18 18 19 20 20 21 20 20 20 19 19 19 20 20 20 19 19 18 18 18 17 16 15 15 14 13 13 13 12 12 11 11 10 9 8 7 7 6 6 6 6 6 7
19 20 20 21 21 22 22 22 22 21 21 21 21 21 21 21 21 21 20 20 19 18 17 17 16 16 15 15 14 14 14 13 12 11 10 10 9 9 8 8 8 8 8
22 22 22 22 23 23 23 23 23 23 23 23 23 23 23 22 22 23 22 22 22 21 20 19 18 18 18 17 16 16 16 15 14 13 12 12 11 11 10 10 10 10 10
24 24 25 25 25 25 25 25 25 25 25 25 25 25 25 24 24 24 24 24 24 23 22 22 21 20 19 19 18 18 18 17 16 15 14 14 13 13 12 12 12 12 12
27 27 27 27 28 28 28 28 28 28 28 28 28 28 27 27 27 26 26 26 25 25 25 25 24 22 22 21 20 20 19 19 17 17 16 15 15 15 14 14 14 14 13
29 29 30 30 30 30 30 30 31 30 30 30 30 29 30 29 29 29 28 28 28 27 27 26 26 25 24 24 23 22 22 21 20 19 18 18 17 16 16 15 15 15 15
32 32 33 33 33 34 34 34 34 33 33 33 32 32 32 32 31 31 31 30 30 30 29 29 27 27 26 25 25 24 23 23 22 21 20 19 18 18 18 17 17 17 17
34 35 35 36 36 36 36 37 37 36 36 36 36 35 35 35 35 34 34 34 33 33 32 31 30 28 27 27 27 26 25 24 23 22 21 21 20 20 20 19 19 19 19
35 36 36 37 37 38 39 39 39 40 39 39 39 38 38 37 37 37 37 37 36 36 35 35 33 32 30 29 29 29 28 27 25 24 23 23 22 22 22 21 21 20 20
36 37 37 38 38 39 40 40 41 41 41 41 41 41 41 40 40 40 40 40 39 39 38 37 37 35 34 33 31 31 31 30 28 27 26 25 25 24 23 23 23 23 22
36 37 37 38 39 40 40 41 42 43 43 44 44 44 43 43 43 43 42 42 42 41 41 41 40 39 38 36 35 34 34 33 32 30 29 28 27 26 26 25 25 25 24
37 38 39 40 41 41 42 42 43 44 44 45 46 46 46 46 46 45 45 45 45 44 44 44 43 43 41 40 39 37 36 36 35 33 32 31 30 29 28 28 27 27 26
38 39 40 41 42 43 44 45 45 46 46 47 47 47 47 48 48 48 48 48 48 47 47 46 46 45 44 43 42 41 40 39 38 37 35 34 32 32 31 30 29 28 28
39 41 42 43 45 46 46 47 47 48 48 49 49 49 50 51 51 51 51 51 51 50 50 49 49 48 47 46 45 44 43 42 41 40 38 37 35 34 33 32 32 30 30
40 42 43 45 46 47 48 49 50 50 51 51 51 52 52 53 53 53 54 54 54 53 53 52 52 51 51 50 49 47 46 44 43 42 41 40 38 37 35 34 33 33 32
41 43 44 45 46 47 49 50 52 53 53 54 54 54 55 55 55 55 55 56 56 56 55 55 55 54 54 52 51 50 48 46 45 44 44 42 40 39 37 37 36 35 34
41 42 43 45 46 47 49 51 53 54 55 56 57 58 58 58 58 58 58 58 58 58 58 57 57 57 56 55 54 52 50 49 48 47 45 44 42 41 40 39 38 37 36
42 43 44 46 47 48 50 52 54 55 56 57 59 60 60 61 60 60 61 60 60 60 60 60 59 59 58 57 56 55 53 52 51 50 47 46 45 43 42 41 41 40 39
43 45 47 48 49 50 52 53 55 56 58 59 61 62 63 63 63 63 63 63 63 63 62 61 61 61 61 60 59 57 56 55 54 52 50 49 47 46 45 44 43 42 40
44 46 48 49 51 52 53 55 56 57 59 60 62 62 63 65 66 66 65 65 64 64 63 63 63 63 63 62 61 60 59 58 57 54 53 51 49 48 47 46 44 43 42
46 47 49 50 51 53 54 55 56 57 58 59 60 62 63 64 66 66 66 66 65 64 63 63 63 63 63 63 63 63 61 61 59 57 56 54 52 50 49 48 47 45 44
47 48 49 50 51 52 53 54 54 54 56 57 58 59 60 62 63 64 64 64 63 64 63 63 63 64 63 63 64 64 63 61 60 59 58 57 55 53 51 49 48 47 46
47 48 49 50 51 51 52 52 51 52 54 55 56 56 57 59 59 60 62 63 63 63 62 62 63 64 62 62 64 64 63 62 61 60 59 58 57 56 54 51 49 48 48
48 49 50 51 51 51 50 50 51 51 52 53 54 53 55 56 56 57 59 61 61 62 62 62 62 63 63 62 62 62 63 62 62 60 59 59 59 58 56 53 51 50 49
48 49 50 50 50 49 49 50 50 49 50 50 52 52 53 53 54 54 56 59 60 61 60 60 61 61 62 62 62 63 62 62 61 61 60 60 60 59 58 56 54 52 51
48 49 49 48 49 49 49 49 48 48 48 49 50 50 51 51 52 53 54 56 58 59 59 59 60 61 60 61 62 63 62 61 61 60 60 60 60 59 59 58 56 54 51

GEFSSE_500_meanwind_198.txt.gz
Wind_Speed
15 16 16 17 17 18 18 18 18 18 18 18 18 19 19 19 19 19 18 18 18 17 17 17 16 15 15 14 14 14 13 13 13 12 12 12 12 10 10 9 9 9 9
17 17 18 18 18 19 19 20 20 20 20 20 20 21 21 21 21 21 21 20 20 20 19 19 18 18 17 17 16 16 16 15 15 14 14 14 13 13 12 12 11 11 11
19 19 20 20 20 21 21 22 22 22 22 22 22 23 23 23 23 23 23 22 22 22 22 21 20 20 19 19 19 19 18 17 17 16 16 15 15 14 14 14 13 13 13
20 21 22 22 22 22 22 23 24 24 25 25 25 25 25 25 25 25 25 25 24 24 23 23 23 22 21 21 21 21 20 19 19 18 17 17 16 16 16 16 15 15 15
22 23 24 24 24 24 25 25 26 26 26 27 27 28 28 28 28 27 27 27 27 26 26 25 25 24 24 22 22 22 22 21 21 20 19 19 18 18 17 17 17 16 16
25 25 25 26 26 27 27 27 28 28 28 29 29 30 30 30 30 30 30 30 29 29 29 28 27 27 26 25 24 23 23 23 23 22 21 21 20 20 19 18 18 18 18
27 27 27 28 28 29 29 29 30 30 31 31 32 32 32 32 32 32 32 32 32 31 31 30 30 30 29 28 27 26 25 25 25 24 24 23 22 22 22 21 20 20 20
28 29 29 30 30 31 31 32 33 33 34 34 34 34 35 35 35 35 35 35 34 34 34 33 33 32 31 30 30 29 27 27 27 26 26 25 25 24 24 24 23 22 22
30 30 31 31 32 32 32 33 34 35 36 36 37 37 37 37 37 37 37 37 37 36 36 36 35 35 34 33 32 32 31 30 29 29 28 28 27 26 26 26 25 25 24
30 31 32 32 32 33 34 34 35 36 36 37 38 38 39 39 39 39 39 39 39 39 39 39 38 37 37 36 35 34 33 33 32 32 31 30 30 29 29 28 28 27 27
31 32 32 33 33 34 35 35 36 37 37 38 39 39 40 40 41 41 41 41 41 41 41 41 41 40 39 39 38 37 37 36 35 35 34 33 33 32 31 31 30 30 30
31 32 32 33 34 35 35 36 37 38 39 39 40 41 41 42 42 42 43 43 43 44 44 44 43 43 42 41 41 40 40 39 38 38 37 37 36 35 34 33 33 32 32
31 31 32 34 34 36 37 38 39 40 40 41 42 42 43 44 44 45 45 45 45 46 46 46 46 46 45 44 44 44 43 42 41 40 40 39 39 39 38 37 36 35 34
31 32 33 34 35 36 37 39 40 41 42 43 44 45 45 46 46 47 47 47 47 48 49 49 49 48 48 48 47 47 46 45 44 44 43 42 42 42 41 40 39 38 37
30 31 33 34 36 37 38 39 40 42 43 44 45 46 47 48 49 49 50 49 50 51 51 51 52 52 51 51 50 50 49 48 47 46 46 45 45 44 43 42 42 41 40
31 32 34 35 36 37 38 40 41 43 44 46 47 48 49 50 51 51 51 52 52 53 53 53 53 54 54 54 53 52 52 51 50 49 48 48 47 46 46 45 44 43 42
32 33 34 35 37 38 39 41 42 43 45 46 48 49 50 52 53 53 53 53 54 55 55 55 55 55 56 56 56 55 54 54 52 51 51 50 50 49 48 48 47 45 44
33 34 35 37 38 39 41 42 43 44 46 47 49 50 51 53 54 55 56 56 56 57 58 58 58 58 58 57 57 57 57 57 55 54 54 53 52 51 50 49 49 47 47
34 35 36 38 39 41 42 43 45 46 48 49 50 51 52 54 55 56 58 59 59 60 60 61 61 61 61 60 60 60 59 59 58 57 56 55 54 53 52 51 50 49 48
35 36 37 39 41 42 43 45 46 48 49 51 52 53 54 55 56 57 59 60 61 63 63 63 64 64 63 63 62 62 61 61 60 59 58 57 56 54 53 53 52 51 50
36 37 38 40 41 43 44 46 47 48 50 51 53 54 55 56 57 58 60 61 63 64 65 66 66 66 65 65 64 63 62 62 61 60 59 59 57 56 56 55 55 54 53
36 38 39 40 42 43 45 46 47 48 49 50 51 53 55 57 58 59 60 61 62 63 64 65 66 66 66 66 66 65 64 62 62 61 61 60 59 58 58 57 57 56 54
38 39 40 41 43 44 45 46 47 49 50 51 52 54 55 57 58 58 59 59 60 61 62 62 64 65 65 65 66 65 65 63 61 61 61 60 60 59 59 59 58 57 56
39 40 41 43 44 45 46 48 49 50 51 53 54 54 55 56 56 57 57 57 57 58 59 59 60 61 63 63 63 64 64 64 63 61 60 61 60 59 59 59 59 58 58
40 42 43 45 46 47 48 50 51 52 53 54 55 55 55 55 55 55 56 56 55 55 55 56 57 57 59 59 59 60 61 61 61 61 59 59 60 59 59 59 59 58 58
42 43 45 46 47 49 50 51 53 54 55 56 55 55 54 54 54 55 55 55 55 54 54 53 53 54 55 56 56 57 59 58 59 60 59 58 58 59 59 59 60 58 58

GEFSSE_500_meanwind_204.txt.gz
Wind_Speed
19 19 18 17 17 16 16 16 16 15 15 14 14 14 14 14 14 15 15 15 15 15 15 15 15 14 14 14 14 13 13 13 13 13 12 13 13 12 12 11 11 11 11
19 19 19 18 17 17 17 17 17 17 17 17 16 16 16 16 17 17 17 17 17 17 17 17 17 17 16 16 15 15 15 16 15 15 15 15 14 14 14 13 13 13 13
20 19 19 19 19 18 18 18 18 18 18 19 19 19 19 19 19 19 19 19 19 19 19 19 19 18 18 18 18 17 16 16 17 17 17 16 16 16 15 15 15 15 15
21 20 20 20 20 20 20 20 20 20 20 20 21 21 21 21 21 21 21 21 21 21 21 21 21 21 20 20 20 19 19 18 18 18 18 18 17 17 17 17 16 16 16
22 22 22 22 22 21 21 21 22 22 22 23 23 23 23 24 24 24 24 24 24 24 24 24 23 23 23 22 22 22 22 21 21 20 20 20 19 19 19 19 18 18 18
23 23 23 23 23 23 23 23 23 24 24 25 25 25 26 26 26 26 26 26 26 26 26 26 26 26 25 25 25 25 25 24 23 23 22 22 22 21 21 20 20 20 19
25 25 24 25 25 25 25 25 25 25 26 26 27 27 27 28 28 28 28 28 28 29 29 28 28 28 28 27 27 26 26 26 26 26 25 24 24 24 23 23 23 23 22
26 26 26 26 26 26 26 27 27 27 28 29 29 30 30 30 30 31 31 31 31 31 31 31 31 30 30 30 30 29 28 28 28 27 27 27 26 27 26 26 25 25 25
28 28 27 27 28 28 28 29 29 30 30 30 31 31 31 32 32 32 32 33 33 33 33 33 33 33 33 32 32 32 31 31 30 30 29 29 29 29 29 29 28 28 28
29 29 29 29 29 29 30 30 31 31 31 32 32 32 32 32 33 33 34 34 35 35 35 35 35 36 36 35 35 35 34 34 33 32 32 31 31 31 31 31 31 31 31
30 30 30 30 31 31 31 31 31 32 32 32 32 32 33 33 34 34 35 35 36 37 37 37 38 38 38 38 38 37 37 37 37 36 35 34 34 34 34 34 34 33 33
31 31 31 31 31 31 32 32 32 32 33 33 33 34 34 35 35 36 36 37 37 38 39 39 39 40 40 41 40 40 40 39 39 39 38 37 37 37 37 36 36 36 36
31 31 31 31 31 31 32 32 32 33 33 34 35 35 36 37 37 38 38 39 39 40 41 41 41 42 43 43 43 43 42 42 42 41 41 41 40 40 39 39 39 38 38
30 30 30 30 30 31 31 32 32 33 34 35 36 37 38 38 39 40 40 41 41 42 43 43 44 44 45 45 46 46 45 45 45 44 44 44 43 42 42 41 41 41 40
29 29 29 30 30 31 32 33 33 34 35 35 36 37 38 40 41 42 43 43 44 44 45 46 46 47 47 48 49 48 47 47 47 47 46 46 46 45 44 43 43 43 42
29 29 29 30 30 31 32 33 34 35 35 36 38 39 40 41 42 43 44 45 46 47 48 48 49 50 51 51 51 51 50 50 49 49 49 49 49 49 47 46 46 46 45
29 29 29 30 31 32 33 34 35 36 37 38 39 40 42 43 43 45 46 46 48 49 50 50 51 52 53 54 54 54 53 53 52 52 52 52 51 51 50 50 49 48 48
29 30 30 31 32 33 34 35 36 37 39 40 41 42 44 45 45 46 47 48 49 50 52 52 53 54 55 55 56 56 56 56 56 55 55 54 54 53 53 52 52 51 50
29 30 31 32 33 34 35 36 37 39 40 41 43 44 45 45 46 48 48 49 50 52 53 54 55 56 56 57 57 57 58 58 58 58 57 57 56 56 55 55 54 53 52
30 31 32 33 34 35 36 37 39 40 42 43 44 46 47 48 49 50 51 52 54 55 56 57 57 58 59 60 59 60 60 60 61 61 60 59 58 58 57 56 56 54 53
30 31 32 33 34 35 36 38 39 41 42 44 45 47 48 49 50 52 53 54 56 57 58 58 58 59 61 62 63 63 63 63 63 63 62 62 61 60 59 58 58 56 56
32 33 34 35 36 37 38 40 41 42 44 45 47 48 50 51 53 54 56 56 57 58 59 60 60 60 60 63 64 64 64 64 64 64 64 64 63 63 62 61 60 59 58
33 34 35 36 37 38 40 41 43 44 45 47 49 50 51 53 54 55 56 57 58 59 59 60 60 60 60 61 63 64 65 65 65 64 65 65 65 65 64 63 62 62 60
35 35 36 37 38 40 41 43 44 46 47 48 50 51 52 53 54 55 56 57 58 59 59 59 59 60 60 61 61 62 64 65 65 64 63 63 64 64 64 64 64 63 62
36 37 38 39 40 41 43 45 46 48 49 50 50 51 53 54 55 56 57 58 58 58 59 59 59 59 59 59 58 58 58 60 61 62 61 60 61 62 63 64 64 64 63
38 38 39 40 42 43 45 47 48 49 50 50 51 52 53 54 55 56 57 57 57 57 58 57 57 57 57 57 56 56 56 56 57 58 58 58 58 58 60 62 63 63 62

GEFSSE_500_meanwind_210.txt.gz
Wind_Speed
19 19 18 18 17 17 16 15 15 14 13 13 13 13 13 12 12 12 12 12 12 12 12 12 12 12 12 12 12 12 11 11 11 11 11 12 12 12 12 13 12 12 12
21 20 20 19 18 18 17 17 16 16 15 15 15 15 14 14 14 14 14 14 14 14 14 14 14 14 14 14 14 14 14 14 14 14 14 14 14 14 14 14 14 14 14
21 21 21 20 19 19 18 18 17 17 17 16 16 16 16 16 16 16 16 16 16 16 16 17 17 17 17 17 17 16 16 16 16 16 16 16 16 16 16 16 16 16 15
21 21 21 21 20 20 20 19 19 19 18 18 18 18 18 18 18 18 17 17 18 18 18 18 19 19 19 19 19 19 18 18 19 19 18 18 18 18 18 18 18 18 18
22 22 22 21 21 21 21 21 20 20 20 20 20 20 20 20 20 20 20 19 20 20 20 20 21 21 21 21 21 21 21 21 21 21 21 21 21 20 20 20 20 20 20
23 22 22 22 22 22 22 22 22 22 22 22 22 22 22 22 22 22 22 22 22 22 23 23 23 23 24 24 24 24 24 23 23 23 23 22 23 23 23 22 22 22 22
24 24 23 23 23 23 23 23 23 23 23 23 23 23 23 23 24 24 24 24 25 25 25 26 26 25 26 26 26 26 27 26 26 26 25 25 25 25 25 25 24 24 24
25 25 25 24 24 24 24 24 24 24 24 24 24 24 25 25 26 26 26 27 27 27 28 28 28 28 28 28 28 28 29 29 29 29 28 28 28 28 28 27 27 27 27
27 27 26 26 26 26 26 26 26 25 25 25 26 26 26 27 27 27 28 28 29 29 29 29 30 29 30 30 30 30 30 31 32 32 32 31 31 30 30 30 30 29 30
28 28 28 27 27 27 27 27 27 26 26 27 27 27 28 28 29 29 29 30 30 30 31 31 31 31 32 32 32 33 33 33 33 34 35 35 34 34 33 33 33 33 32
30 29 29 29 28 28 28 28 28 28 28 28 28 29 29 29 30 30 31 31 32 32 32 33 33 34 34 34 34 35 35 35 35 36 36 37 37 36 36 36 36 36 35
31 31 30 30 30 29 29 29 29 29 29 29 30 30 30 30 31 31 32 32 33 33 34 34 35 35 36 37 37 37 38 38 38 38 38 38 39 39 38 39 38 38 38
32 32 31 31 30 30 30 30 30 30 30 30 30 30 31 31 31 32 32 33 34 34 35 35 36 37 37 38 38 39 39 40 40 39 39 40 40 41 41 41 41 41 40
32 32 32 31 31 31 31 31 31 31 30 30 30 30 31 31 32 33 34 34 35 36 36 37 37 38 39 39 40 41 41 42 42 42 42 42 43 43 44 44 44 44 43
31 31 31 32 32 32 31 31 31 30 30 30 31 32 33 33 34 35 36 36 37 38 38 39 40 41 41 42 43 43 44 45 45 45 44 44 44 45 46 46 46 46 46
31 31 31 31 31 31 31 31 30 30 31 31 32 33 34 34 35 36 37 37 38 39 40 41 41 42 43 44 45 45 46 46 47 47 47 47 48 48 48 48 48 49 49
30 30 30 31 31 31 31 31 31 31 32 32 33 34 35 35 36 37 38 39 40 41 42 43 43 44 45 46 47 47 48 48 49 50 50 51 51 51 51 51 51 51 51
30 30 30 31 31 31 31 31 32 32 33 33 34 35 36 37 38 39 40 41 42 43 44 44 45 46 47 47 48 49 50 51 51 52 53 53 54 54 54 55 55 54 54
29 30 30 30 31 31 31 32 32 33 34 34 35 36 37 38 39 40 41 42 43 44 45 46 47 48 49 50 51 51 52 53 54 55 55 56 57 57 58 57 57 57 57
29 29 29 30 30 31 31 32 33 33 34 35 36 37 38 40 41 41 42 43 44 45 46 47 48 50 52 53 54 54 55 56 57 57 58 59 59 60 61 61 61 61 61
30 29 30 30 31 31 32 33 34 34 35 36 37 38 39 41 42 43 44 45 46 47 48 50 51 52 53 54 56 56 57 58 59 60 61 61 61 62 63 64 64 63 63
30 30 30 31 31 32 33 33 34 35 36 37 38 40 41 42 43 45 45 46 47 49 50 51 52 53 54 56 58 59 59 60 60 61 62 62 63 63 64 64 65 65 64
30 30 31 32 33 33 34 35 35 36 37 39 40 41 43 43 45 46 47 48 48 50 51 52 53 54 55 56 57 59 60 61 61 60 60 61 61 62 63 64 65 66 66
32 32 33 34 34 35 35 36 37 38 39 40 41 42 43 45 46 47 48 49 50 51 52 53 54 55 56 57 58 59 60 61 62 60 58 58 59 59 60 61 62 63 64
33 34 35 35 35 36 37 38 39 40 41 41 42 43 45 46 47 48 49 50 51 52 52 53 54 55 56 57 57 58 59 59 60 60 58 56 56 56 56 57 59 61 63
35 36 36 35 36 37 38 39 40 41 42 43 44 45 46 47 48 49 50 51 51 52 53 53 54 55 56 56 56 56 57 57 58 59 58 56 55 55 56 57 57 58 61